Regional Weather Roundup
Issued by NWS Albany, NY

Home | Current Version | Previous Version | Text Only | Print | Product List | Glossary On
Versions: 1 2 3 4 5 6 7 8 9 10 11 12 13 14 15 16 17 18 19 20 21 22 23 24 25 26 27
000
ASUS41 KALY 290210
RWRALY

NEW YORK STATE HOURLY WEATHER ROUNDUP
NATIONAL WEATHER SERVICE ALBANY NY
1000 PM EDT WED SEP 28 2016

NOTE: "FAIR" INDICATES FEW OR NO CLOUDS BELOW 12,000 FEET WITH NO
SIGNIFICANT WEATHER AND/OR NO OBSTRUCTIONS TO VISIBILITY.

NYZ032-033-038>043-046>054-057>066-NYZ062>081-082-084-290300-
EAST


CITY           SKY/WX    TMP DP  RH WIND       PRES   REMARKS
ALBANY         CLOUDY    56  45  66 E6        30.34R
GLENS FALLS    CLEAR     56  45  66 E9        30.34R
POUGHKEEPSIE   CLOUDY    57  48  72 NE8       30.29R
NEWBURGH       CLOUDY    57  52  82 E17G23    30.29R
MONTGOMERY     CLOUDY    57  52  83 NE13      30.28R
WHITE PLAINS   DRIZZLE   56  51  84 NE10      30.25R
ISLIP          DRIZZLE   59  55  87 NE15      30.24R
NEW YORK CITY  DRIZZLE   62  56  80 NE23G31   30.24R
CENTRAL PARK   CLOUDY    58  55  90 VRB7G16   30.27R FOG
$$

NYZ005>009-017-018-044>046-055-056-290300-
CENTRAL


CITY           SKY/WX    TMP DP  RH WIND       PRES   REMARKS
FULTON         PTCLDY    62  52  69 VRB5      30.23R
SYRACUSE       PTCLDY    56  51  84 E8        30.23R
ROME           CLEAR     56  51  84 E8        30.29R
ELMIRA         CLOUDY    62  50  64 NE9       30.18R
BINGHAMTON     PTCLDY    54  49  83 E8        30.23R
MONTICELLO     CLOUDY    54  48  82 E14G23    30.28R
$$

NYZ026>034-041>043-087-290300-
NORTH


CITY           SKY/WX    TMP DP  RH WIND       PRES   REMARKS
WATERTOWN      CLEAR     51  48  89 NE5       30.25R
FORT DRUM      NOT AVBL
OGDENSBURG     FAIR      59  54  82 E9G16     30.30R
MASSENA        CLEAR     59  52  77 NE15      30.33R
SARANAC LAKE   CLEAR     46  43  89 CALM      30.32R
PLATTSBURGH    PTCLDY    54  51  90 CALM      30.32R
$$

NYZ001>004-010>016-019>021-085-290300-
WEST


CITY           SKY/WX    TMP DP  RH WIND       PRES   REMARKS
NIAGARA FALLS  CLOUDY    65  54  67 E12       30.12R
BUFFALO        LGT RAIN  63  52  67 E12       30.12R
DUNKIRK        CLEAR     58  50  75 E8        30.08R
JAMESTOWN      MOCLDY    61  46  59 E10G16    30.09S
WELLSVILLE     CLOUDY    60  51  72 E8G20     30.18R
ROCHESTER      LGT RAIN  65  52  62 E12       30.18R
PENN YAN       CLOUDY    63  49  60 VRB6      30.21R
$$

             KEY
       WCI = WIND CHILL INDEX
       VSB = VISIBILITY
       HX  = HEAT INDEX
$$




USA.gov is the U.S. government's official web portal to all federal, state and local government web resources and services.